Sanford, NC

7:40 PM EDT on March 24, 2017 (GMT -0400)
Raleigh Executive Jetport

Weather History for KTTA - February, 2013

Change the Weather History Date:

Thursday, February 21, 2013

  Actual Average (KHRJ) Record (KHRJ)
Temperature  
Mean Temperature 39 °F -  
Max Temperature 56 °F 60 °F 77 °F (1991)
Min Temperature 22 °F 35 °F 19 °F (2015)
Degree Days  
Heating Degree Days 26    
Moisture  
Dew Point 19 °F    
Average Humidity 52    
Maximum Humidity 89    
Minimum Humidity 18    
Precipitation  
Precipitation 0.00 in - - ()
Sea Level Pressure  
Sea Level Pressure 30.17 in    
Wind  
Wind Speed 1 mph (NNW)    
Max Wind Speed 8 mph    
Max Gust Speed -    
Visibility 10 miles    
Events      
Averages and records for this station are not official NWS values.
T = Trace of Precipitation, MM = Missing Value Source: NWS Daily Summary

Daily Weather History Graph

Daily Weather History Graph

Search for Another Location

Airport or City:

Trip Planner

Search our weather history database for the weather conditions in past years. The results will help you decide how hot, cold, wet, or windy it might be!

Date:

Astronomy

Feb. 21, 2013 Rise Set
Actual Time 6:55 AM EST 6:04 PM EST
Civil Twilight 6:30 AM EST 6:30 PM EST
Nautical Twilight 6:00 AM EST 7:00 PM EST
Astronomical Twilight 5:30 AM EST 7:29 PM EST
Moon 2:22 PM EST (2/21) 3:53 AM EST (2/21)
Length of Visible Light 12h 00m
Length of Day
11h 08m
Waxing Gibbous, 83% of the Moon is Illuminated
Feb 21
Waxing Gibbous
Feb 25
Full
Mar 4
Last Quarter
Mar 11
New
Mar 19
First Quarter

Hourly Weather History & Observations

Time (EST) Temp. Windchill Dew Point Humidity Pressure Visibility Wind Dir Wind Speed Gust Speed Precip Events Conditions
12:15 AM 29.3 °F - 21.2 °F 72% 30.13 in 10.0 mi Calm Calm - N/A   Clear
12:35 AM 28.2 °F - 21.9 °F 77% 30.13 in 10.0 mi Calm Calm - N/A   Clear
12:55 AM 28.2 °F - 21.0 °F 74% 30.13 in 10.0 mi Calm Calm - N/A   Clear
1:15 AM 27.9 °F - 21.9 °F 78% 30.13 in 10.0 mi Calm Calm - N/A   Clear
1:35 AM 28.4 °F - 21.0 °F 74% 30.13 in 10.0 mi Calm Calm - N/A   Clear
1:55 AM 28.2 °F - 21.4 °F 76% 30.13 in 10.0 mi Calm Calm - N/A   Clear
2:15 AM 28.2 °F - 21.7 °F 77% 30.13 in 10.0 mi Calm Calm - N/A   Clear
2:35 AM 27.3 °F 23.4 °F 21.9 °F 80% 30.14 in 10.0 mi SSW 3.5 mph - N/A   Clear
2:55 AM 26.6 °F - 21.9 °F 82% 30.14 in 10.0 mi Calm Calm - N/A   Clear
3:15 AM 26.8 °F - 20.3 °F 77% 30.15 in 10.0 mi Calm Calm - N/A   Clear
3:35 AM 26.8 °F - 21.4 °F 80% 30.16 in 10.0 mi Calm Calm - N/A   Clear
3:55 AM 26.1 °F - 21.7 °F 84% 30.15 in 10.0 mi Calm Calm - N/A   Clear
4:15 AM 25.9 °F - 20.5 °F 80% 30.15 in 10.0 mi Calm Calm - N/A   Clear
4:35 AM 25.9 °F - 19.9 °F 78% 30.16 in 10.0 mi Calm Calm - N/A   Clear
4:55 AM 25.0 °F - 19.8 °F 81% 30.17 in 10.0 mi Calm Calm - N/A   Clear
5:15 AM 24.4 °F - 20.3 °F 84% 30.17 in 10.0 mi Calm Calm - N/A   Clear
5:35 AM 24.4 °F - 19.9 °F 83% 30.17 in 10.0 mi Calm Calm - N/A   Clear
5:55 AM 23.9 °F - 19.9 °F 85% 30.17 in 10.0 mi Calm Calm - N/A   Clear
6:15 AM 23.2 °F - 20.1 °F 88% 30.18 in 10.0 mi Calm Calm - N/A   Clear
6:35 AM 22.5 °F - 19.4 °F 88% 30.19 in 10.0 mi Calm Calm - N/A   Clear
6:55 AM 22.3 °F - 19.4 °F 89% 30.20 in 10.0 mi Calm Calm - N/A   Clear
7:15 AM 22.1 °F - 19.0 °F 88% 30.21 in 10.0 mi Calm Calm - N/A   Clear
7:35 AM 22.6 °F - 19.6 °F 88% 30.21 in 10.0 mi Calm Calm - N/A   Clear
7:55 AM 24.6 °F - 21.6 °F 88% 30.21 in 10.0 mi Calm Calm - N/A   Clear
8:15 AM 27.5 °F - 23.2 °F 84% 30.22 in 10.0 mi Calm Calm - N/A   Clear
8:35 AM 30.6 °F - 23.4 °F 75% 30.23 in 10.0 mi Calm Calm - N/A   Clear
8:55 AM 33.8 °F - 23.9 °F 67% 30.23 in 10.0 mi Calm Calm - N/A   Clear
9:15 AM 36.5 °F - 19.4 °F 50% 30.23 in 10.0 mi Calm Calm - N/A   Clear
9:35 AM 38.5 °F 36.1 °F 17.6 °F 43% 30.23 in 10.0 mi NE 3.5 mph - N/A   Clear
9:55 AM 39.9 °F 35.8 °F 16.5 °F 39% 30.23 in 10.0 mi NNW 5.8 mph - N/A   Clear
10:35 AM 42.4 °F - 15.3 °F 33% 30.21 in 10.0 mi Calm Calm - N/A   Clear
10:55 AM 43.9 °F 39.9 °F 15.3 °F 32% 30.21 in 10.0 mi West 6.9 mph - N/A   Clear
11:15 AM 45.0 °F - 15.1 °F 30% 30.21 in 10.0 mi Calm Calm - N/A   Clear
11:35 AM 46.6 °F - 15.6 °F 29% 30.21 in 10.0 mi WSW 3.5 mph - N/A   Clear
11:55 AM 48.2 °F - 15.1 °F 27% 30.20 in 10.0 mi West 3.5 mph - N/A   Clear
12:15 PM 48.9 °F - 14.7 °F 26% 30.19 in 10.0 mi West 3.5 mph - N/A   Clear
12:35 PM 50.0 °F - 14.5 °F 24% 30.18 in 10.0 mi Calm Calm - N/A   Clear
1:15 PM 52.0 °F - 12.6 °F 21% 30.15 in 10.0 mi WNW 5.8 mph - N/A   Clear
1:35 PM 53.1 °F - 13.8 °F 21% 30.14 in 10.0 mi West 8.1 mph - N/A   Clear
1:55 PM 53.8 °F - 10.9 °F 18% 30.14 in 10.0 mi WNW 8.1 mph - N/A   Clear
2:15 PM 54.9 °F - 14.4 °F 20% 30.13 in 10.0 mi West 6.9 mph - N/A   Clear
2:35 PM 54.7 °F - 12.4 °F 19% 30.12 in 10.0 mi WNW 3.5 mph - N/A   Clear
2:55 PM 55.8 °F - 13.1 °F 19% 30.11 in 10.0 mi WNW 3.5 mph - N/A   Clear
3:15 PM 56.1 °F - 12.9 °F 18% 30.11 in 10.0 mi Calm Calm - N/A   Clear
3:35 PM 56.5 °F - 14.0 °F 19% 30.11 in 10.0 mi North 5.8 mph - N/A   Clear
3:55 PM 56.7 °F - 14.9 °F 19% 30.11 in 10.0 mi NNE 5.8 mph - N/A   Clear
4:15 PM 56.5 °F - 14.5 °F 19% 30.12 in 10.0 mi North 4.6 mph - N/A   Clear
4:35 PM 56.3 °F - 13.6 °F 19% 30.12 in 10.0 mi Calm Calm - N/A   Clear
5:15 PM 54.9 °F - 15.6 °F 21% 30.14 in 10.0 mi North 3.5 mph - N/A   Clear
6:15 PM 46.0 °F 44.8 °F 27.5 °F 48% 30.14 in 10.0 mi NNE 3.5 mph - N/A   Clear
6:35 PM 46.4 °F - 23.2 °F 40% 30.14 in 10.0 mi Calm Calm - N/A   Clear
6:55 PM 47.3 °F - 22.8 °F 38% 30.16 in 10.0 mi Calm Calm - N/A   Clear
7:15 PM 45.1 °F - 25.7 °F 47% 30.18 in 10.0 mi Calm Calm - N/A   Clear
7:35 PM 43.9 °F - 22.8 °F 43% 30.19 in 10.0 mi Calm Calm - N/A   Clear
7:55 PM 44.1 °F 42.5 °F 26.2 °F 50% 30.19 in 10.0 mi North 3.5 mph - N/A   Clear
8:15 PM 44.1 °F 42.5 °F 25.0 °F 47% 30.20 in 10.0 mi NNE 3.5 mph - N/A   Clear
8:35 PM 42.6 °F 39.9 °F 27.5 °F 55% 30.19 in 10.0 mi NNE 4.6 mph - N/A   Clear
8:55 PM 42.8 °F 40.1 °F 26.6 °F 53% 30.19 in 10.0 mi NNE 4.6 mph - N/A   Clear
9:15 PM 45.1 °F 42.8 °F 21.2 °F 39% 30.18 in 10.0 mi NE 4.6 mph - N/A   Clear
9:35 PM 45.5 °F 43.2 °F 20.7 °F 37% 30.19 in 10.0 mi NNE 4.6 mph - N/A   Clear
9:55 PM 45.5 °F 43.2 °F 20.1 °F 36% 30.20 in 10.0 mi NE 4.6 mph - N/A   Clear
10:15 PM 45.9 °F - 19.9 °F 36% 30.22 in 10.0 mi Calm Calm - N/A   Clear
10:35 PM 44.4 °F - 22.3 °F 42% 30.24 in 10.0 mi Calm Calm - N/A   Clear
10:55 PM 43.0 °F 41.3 °F 24.3 °F 48% 30.23 in 10.0 mi NE 3.5 mph - N/A   Clear
11:15 PM 45.0 °F 43.5 °F 20.3 °F 38% 30.22 in 10.0 mi NE 3.5 mph - N/A   Mostly Cloudy
11:35 PM 45.0 °F 43.5 °F 19.9 °F 37% 30.22 in 10.0 mi ENE 3.5 mph - N/A   Scattered Clouds
11:55 PM 45.5 °F - 20.1 °F 36% 30.24 in 10.0 mi Calm Calm - N/A   Scattered Clouds